Location: Hardivellers
(49.6168°N, 2.2229°E)
Time: 22:00:24
(UTC+00:00)

Daily predictions for brighter satellites

Satellite Brightness Start Highest point End
(mag) Time Altitude Azimuth Time Altitude Azimuth Time Altitude Azimuth
Cosmos 2344 4.5 20:26:37 10° NW 20:35:01 65° NE 20:46:33 10° ESE
SPOT 1/Viking Rocket 4.0 20:36:39 10° S 20:41:46 65° WSW 20:46:56 10° NNW
Cosmos 2154 Rocket 4.4 20:37:31 10° N 20:43:33 49° ENE 20:49:31 10° SSE
COSMOS 2406 4.3 20:39:00 10° SSE 20:43:42 26° ESE 20:48:23 10° NE
X-37B 1.4 20:41:44 10° WSW 20:44:13 28° S 20:46:43 10° SE
Spot 2 Rocket 3.9 20:39:38 10° SE 20:44:35 54° ENE 20:49:34 10° N
Cosmos 1025 Rocket 4.1 20:41:16 10° SSW 20:45:25 49° WNW 20:49:38 10° N
SPOT 5 2.8 20:50:14 10° SSE 20:54:30 59° ENE 20:58:47 10° N
Cosmos 2084 Rocket 3.6 20:52:05 10° NW 20:55:56 60° NE 20:59:55 10° SE
Cosmos 1703 3.3 20:52:48 10° S 20:56:34 58° E 21:00:23 10° NNE
RESURS DK-1 2.6 20:52:51 10° NW 20:56:59 67° WSW 21:01:04 10° SSE
Cosmos 1452 Rocket 3.5 20:54:06 10° SSW 20:59:21 80° ESE 21:04:38 10° NNE
Cosmos 1833 Rocket 2.8 20:54:07 10° S 20:59:33 54° ESE 21:05:02 10° NE
Terra 2.3 20:56:39 10° SE 21:01:14 50° ENE 21:05:51 10° N
CZ-4B R/B 2.1 20:58:46 10° N 21:01:33 46° WNW 21:04:20 10° SSW
FALCON 9 DEB 3.8 21:02:03 10° WNW 21:05:14 50° N 21:08:26 10° E
Helios 1A Rocket 3.0 21:01:14 10° SSE 21:05:17 70° ENE 21:09:24 10° N
Cosmos 1110 Rocket 4.1 21:00:12 10° S 21:05:22 59° ESE 21:10:36 10° NNE
Cosmos 2322 Rocket 4.3 21:03:39 10° N 21:07:27 18° NE 21:11:15 10° ENE
ERS-1 Rocket 3.0 21:02:45 10° SSE 21:07:46 72° ENE 21:12:48 10° N
Resurs 01 Rocket 3.4 21:04:32 10° SSW 21:08:26 29° W 21:12:20 10° NNW
Cosmos 2228 3.0 21:06:41 10° N 21:10:56 84° ENE 21:15:11 10° S
Cosmos 2058 Rocket 4.3 21:07:54 10° N 21:11:46 29° ENE 21:15:19 12° SE
Cosmos 2184 Rocket 4.1 21:08:40 10° NNW 21:14:52 79° W 21:21:04 10° S
Cosmos 1825 4.4 21:15:47 10° E 21:16:48 11° E 21:17:49 10° ENE
Lacrosse 5 4.0 21:14:04 10° W 21:17:10 16° WSW 21:20:15 10° SSW
Cosmos 1408 4.0 21:16:14 13° SE 21:18:14 20° E 21:20:51 10° NE
Cosmos 968 Rocket 3.8 21:16:58 10° NNW 21:22:07 59° ENE 21:26:36 14° SE
Cosmos 1328 4.0 21:22:05 11° S 21:25:51 54° E 21:29:45 10° NNE
USA 276 2.0 21:24:09 10° W 21:27:12 81° N 21:30:14 10° E
H-2A R/B 4.4 21:26:48 10° N 21:30:28 26° WNW 21:34:10 10° WSW
SJ 16-02 3.7 21:28:41 10° NNE 21:31:03 14° NE 21:33:24 10° E
Cosmos 1867 3.7 21:26:19 10° NW 21:31:50 73° NE 21:36:30 14° SE
Cosmos 2082 Rocket 2.6 21:28:03 10° S 21:33:24 44° ESE 21:38:46 10° NE
USA 267 4.0 21:31:32 10° ENE 21:37:03 28° SE 21:42:33 10° S
ARIANE 5 R/B 2.6 21:35:43 15° SSE 21:39:23 83° ENE 21:43:49 10° NNW
Cosmos 1606 Rocket 3.6 21:35:20 10° NNW 21:39:40 76° W 21:43:23 14° S
GP-B 3.9 21:36:31 10° NNE 21:40:41 38° E 21:43:35 17° SE
Cosmos 2341 Rocket 4.2 21:35:41 10° N 21:41:58 62° ENE 21:47:01 16° SSE
Cosmos 2360 Rocket 4.2 21:39:26 10° N 21:43:36 20° NE 21:47:45 10° E
Meteor 1-21 Rocket 4.4 21:38:30 10° SSW 21:44:06 79° WNW 21:49:52 10° N
Cosmos 192 4.3 21:43:41 10° SSW 21:48:33 71° ESE 21:53:27 10° NNE
Okean 1-7 Rocket 4.4 21:58:40 20° SE 22:01:10 37° E 22:05:19 10° NNE
SAR-Lupe-1 4.3 21:58:14 10° NNE 22:01:44 50° E 22:03:39 23° SSE
Cosmos 1726 Rocket 4.0 21:58:06 10° NNW 22:02:21 58° W 22:05:41 16° S
Cosmos 1892 2.7 22:02:06 22° S 22:04:21 61° E 22:08:06 10° NNE
Cosmos 2181 Rocket 4.1 22:07:21 18° SSE 22:11:55 61° E 22:18:04 10° NNE
USA 234 3.6 22:06:29 10° ESE 22:12:59 67° NNE 22:19:30 10° WNW
Cosmos 1633 4.1 22:12:09 19° ESE 22:13:06 21° E 22:15:46 10° NE
Cosmos 1697 Rocket 4.1 22:12:11 10° NW 22:16:57 29° WSW 22:21:16 12° SSW
Cosmos 1980 Rocket 2.6 22:11:28 10° NW 22:17:02 54° WSW 22:20:52 20° S
SL-16 R/B 2.8 22:11:33 10° NNW 22:17:06 51° NE 22:21:23 17° SE
Cosmos 1486 Rocket 4.0 22:12:27 10° NNW 22:17:42 77° ENE 22:21:05 22° SSE
Cosmos 1992 Rocket 4.2 22:15:19 20° S 22:18:46 52° ESE 22:23:51 10° NNE
X-37B 2.8 22:17:45 10° SW 22:18:13 12° SW 22:18:13 12° SW
Cosmos 1812 Rocket 4.4 22:15:29 10° N 22:19:42 39° ENE 22:22:08 21° SE
Cosmos 1932 4.5 22:14:20 10° SSW 22:20:27 62° ESE 22:26:42 10° NE
Cosmos 2369 4.4 22:15:08 10° NW 22:20:36 46° WSW 22:24:30 18° S
Cosmos 2219 Rocket 4.5 22:16:42 10° N 22:20:37 19° NE 22:24:32 10° E
TIMED 4.5 22:21:54 15° SSW 22:25:29 89° WNW 22:29:53 10° NNE
COSMOS 2406 3.7 22:21:53 10° SW 22:27:35 61° WNW 22:33:19 10° NNE
Cosmos-2242 3.9 22:25:04 10° N 22:29:03 37° ENE 22:31:12 22° SE
ATLAS 5 CENTAUR R/B 1.4 22:29:23 26° S 22:31:15 51° SE 22:35:19 10° NE
Cosmos 1869 3.2 22:29:22 10° N 22:33:17 90° SE 22:35:09 30° S
Cosmos 807 4.4 22:30:33 10° N 22:33:36 53° ENE 22:34:25 38° SE
Cosmos 1602 Rocket 4.0 22:32:11 27° SSE 22:34:06 45° E 22:38:14 10° NNE
In-Cosmos 22 Rocket 4.1 22:30:23 19° S 22:34:27 87° E 22:39:55 10° NNE
ERS-2 4.3 22:35:37 10° ENE 22:37:08 12° E 22:37:40 12° E
Meteor 1-27 4.2 22:33:31 10° NNW 22:39:05 76° W 22:42:35 24° S
Terra 3.6 22:35:29 10° SW 22:39:15 23° W 22:43:03 10° NW
FALCON 9 DEB 3.1 22:38:20 10° WNW 22:41:33 54° SSW 22:42:17 42° SSE
ASTEX 1 3.8 22:37:09 10° N 22:42:05 60° W 22:45:50 17° SSW
ALOS 2 3.3 22:39:49 23° SE 22:42:10 46° ENE 22:46:23 10° N
Cosmos 1833 Rocket 4.4 22:38:45 10° WSW 22:43:46 32° NW 22:48:49 10° NNE
Cosmos 1354 Rocket 4.2 22:40:37 10° NNW 22:45:56 67° ENE 22:49:06 24° SE
BREEZE-M DEB (TANK) 3.5 22:44:45 10° W 22:47:47 83° S 22:58:52 10° ESE
SL-8 Rocket 4.4 22:42:35 10° NNW 22:48:39 55° W 22:53:01 19° SSW
Cosmos 2058 Rocket 4.4 22:45:48 10° NNW 22:49:46 33° W 22:52:35 17° SW
ADEOS Rocket 3.7 22:45:43 21° SE 22:50:59 67° ENE 22:58:42 10° N
Cosmos 1825 2.3 22:49:40 27° SSW 22:51:33 68° WNW 22:55:18 10° N
Cosmos 2322 Rocket 2.4 22:46:58 10° NNW 22:52:39 66° ENE 22:56:24 22° SE
Cosmos 1408 4.2 22:50:12 13° SW 22:52:45 28° WNW 22:55:48 10° N
Cosmos 1503 Rocket 4.0 22:50:24 10° NNW 22:55:44 87° WSW 22:58:35 28° SSE
Cosmos 1626 Rocket 3.6 22:54:43 25° SSW 22:57:10 73° WNW 23:01:32 10° N
USA 276 2.1 22:59:56 10° W 23:02:49 51° SSW 23:02:49 51° SSW
Cosmos 2278 4.5 22:57:56 10° NW 23:03:16 41° WSW 23:06:17 23° SSW
Cosmos 1777 Rocket 4.3 22:58:28 10° NNW 23:03:45 64° ENE 23:06:53 24° SE
Cosmos 2333 Rocket 3.3 23:02:20 10° NNW 23:07:46 40° NE 23:12:52 11° ESE
Cosmos 1825 Rocket 4.0 23:08:17 31° SE 23:09:53 46° E 23:14:03 10° NNE
SJ 16-02 1.3 23:05:53 10° NNW 23:10:21 84° ENE 23:12:19 33° SSE
Gbstr 26 Del rocket 4.0 23:11:09 29° SE 23:11:12 29° SE 23:15:27 10° ENE
Cosmos 1340 Rocket 3.9 23:13:04 27° ESE 23:14:08 31° E 23:17:40 10° NNE
Cosmos 2082 Rocket 3.5 23:12:14 10° WSW 23:17:34 39° NW 23:22:55 10° NNE
Meteor 2-20 4.4 23:13:52 25° S 23:17:36 89° ESE 23:23:44 10° N
H-2A R/B 3.4 23:15:01 10° NNE 23:19:14 77° ESE 23:20:55 35° S
USA 267 3.2 23:14:07 10° ENE 23:20:42 81° SSE 23:27:15 10° SW
Cosmos 2221 3.5 23:22:05 10° N 23:26:11 38° ENE 23:28:18 23° SE
Cosmos 1606 2.7 23:23:09 10° NNW 23:27:01 75° W 23:28:16 41° S
Cosmos 2058 3.0 23:26:08 37° SSE 23:27:38 65° E 23:31:48 10° NNE
Cosmos 2360 Rocket 2.2 23:22:50 10° NNW 23:28:34 79° ENE 23:31:59 25° SE
Cosmos 1934 Rocket 4.1 23:23:27 10° N 23:29:32 70° ENE 23:33:06 26° SSE
Meteor 2-2 Rocket 4.4 23:35:14 10° NNW 23:41:17 86° W 23:44:36 29° S
Cosmos 44 3.8 23:41:21 33° SSE 23:42:28 38° ESE 23:46:37 10° NE
Cosmos 2237 4.4 23:38:33 10° NW 23:44:11 57° WSW 23:46:53 30° S
Meteor 2-20 Rocket 4.5 23:42:26 26° SSW 23:46:03 79° WNW 23:52:11 10° N
Cosmos 1633 4.0 23:45:56 20° WSW 23:47:27 28° WNW 23:50:29 10° NNW
Cosmos 1758 Rocket 4.4 23:45:44 24° SW 23:48:00 44° WNW 23:52:14 10° N
Cosmos 2237 Rocket 4.4 23:48:14 10° N 23:52:40 22° NE 23:57:03 10° E
